FW6629 Weather Reports


Display with metric or nautical units.
time (UTC)temp
F
wind
direction
speed
MPH
gust
MPH
rain 1hr
in
rain 24hr
in
rain mn
in
humidity
%
barometer
mb
20260906022525 78 125 1.0 2.0 0.00 0.00 0.00 80 1012.9
20260906022032 78 108 0.0 2.0 0.00 0.00 0.00 80 1013.1
20260906021553 78 148 0.0 2.0 0.00 0.00 0.00 80 1013.1
20260906021026 78 120 1.0 2.0 0.00 0.00 0.00 79 1013.0
20260906020524 78 123 0.0 2.0 0.00 0.00 0.00 78 1013.0
20260906020056 78 0 0.0 2.0 0.00 0.00 0.00 78 1012.9
20260906015525 78 0 0.0 0.0 0.00 0.00 0.00 77 1012.9
20260906015024 78 0 0.0 1.0 0.00 0.00 0.00 77 1012.7
20260906014550 79 0 0.0 2.0 0.00 0.00 0.00 77 1012.7
20260906014027 79 121 1.0 2.0 0.00 0.00 0.00 77 1012.6
20260906013525 79 173 1.0 2.0 0.00 0.00 0.00 76 1012.6
20260906013048 79 141 0.0 2.0 0.00 0.00 0.00 75 1012.5
20260906012524 79 0 0.0 0.0 0.00 0.00 0.00 75 1012.3
20260906012026 79 0 0.0 2.0 0.00 0.00 0.00 74 1012.4
20260906011602 80 0 0.0 2.0 0.00 0.00 0.00 74 1012.3
20260906011024 80 7 0.0 2.0 0.00 0.00 0.00 74 1012.2
20260906010524 80 7 0.0 2.0 0.00 0.00 0.00 73 1012.2
20260906010048 80 7 1.0 2.0 0.00 0.00 0.00 74 1012.1
20260906005525 80 350 1.0 2.0 0.00 0.00 0.00 73 1012.1
20260906005029 80 71 0.0 2.0 0.00 0.00 0.00 72 1012.0
20260906004546 80 0 0.0 2.0 0.00 0.00 0.00 71 1012.0
20260906004028 81 104 1.0 2.0 0.00 0.00 0.00 71 1012.0
20260906003526 82 104 1.0 2.0 0.00 0.00 0.00 70 1011.9
20260906003047 82 119 1.0 2.0 0.00 0.00 0.00 69 1011.8
20260906002524 83 0 1.0 2.0 0.00 0.00 0.00 67 1011.8
20260906002027 83 351 1.0 2.0 0.00 0.00 0.00 66 1011.6
20260906001548 83 0 0.0 2.0 0.00 0.00 0.00 66 1011.7
20260906001027 84 104 1.0 2.0 0.00 0.00 0.00 65 1011.7
20260906000532 84 67 0.0 2.0 0.00 0.00 0.00 63 1011.8
20260906000056 85 0 0.0 2.0 0.00 0.00 0.00 63 1011.9
20260905235525 85 5 0.0 4.0 0.00 0.00 0.00 62 1011.9
20260905235024 85 45 1.0 4.0 0.00 0.00 0.00 61 1012.1
20260905234550 85 84 0.0 2.0 0.00 0.00 0.00 60 1012.2
20260905234026 86 0 0.0 3.0 0.00 0.00 0.00 60 1012.2
20260905233524 86 0 0.0 3.0 0.00 0.00 0.00 60 1012.4
20260905233105 86 73 0.0 2.0 0.00 0.00 0.00 59 1012.5
20260905232526 86 18 0.0 2.0 0.00 0.00 0.00 59 1012.5
20260905232025 86 91 0.0 3.0 0.00 0.00 0.00 58 1012.3
20260905231555 87 96 1.0 3.0 0.00 0.00 0.00 58 1012.0
20260905231024 87 96 1.0 4.0 0.00 0.00 0.00 57 1012.0
20260905230533 87 98 2.0 4.0 0.00 0.00 0.00 57 1012.0
20260905230049 88 114 3.0 4.0 0.00 0.00 0.00 57 1012.1
20260905225528 88 63 1.0 3.0 0.00 0.00 0.00 56 1012.0
20260905225027 88 79 0.0 7.0 0.00 0.00 0.00 56 1012.0
20260905224607 89 76 2.0 7.0 0.00 0.00 0.00 56 1011.9
20260905224023 89 27 1.0 5.0 0.00 0.00 0.00 57 1011.9
20260905223527 90 89 1.0 5.0 0.00 0.00 0.00 56 1011.9
20260905223055 90 21 2.0 5.0 0.00 0.00 0.00 56 1011.9
20260905222531 91 32 1.0 4.0 0.00 0.00 0.00 55 1012.0
20260905222031 91 45 1.0 6.0 0.00 0.00 0.00 54 1012.0
20260905221547 92 73 2.0 7.0 0.00 0.00 0.00 53 1012.2
20260905221028 92 334 3.0 7.0 0.00 0.00 0.00 52 1012.3
20260905220525 93 64 1.0 5.0 0.00 0.00 0.00 53 1012.5
20260905220049 93 3 2.0 7.0 0.00 0.00 0.00 51 1012.6
20260905215524 93 11 2.0 7.0 0.00 0.00 0.00 53 1012.7
20260905215031 93 321 2.0 6.0 0.00 0.00 0.00 53 1012.6
20260905214552 93 359 2.0 6.0 0.00 0.00 0.00 53 1012.6
20260905214026 93 122 1.0 6.0 0.00 0.00 0.00 53 1012.7
20260905213525 92 65 1.0 8.0 0.00 0.00 0.00 55 1012.7
20260905213049 92 40 2.0 8.0 0.00 0.00 0.00 54 1012.7
20260905212524 92 352 2.0 7.0 0.00 0.00 0.00 56 1012.7
20260905212031 92 31 2.0 8.0 0.00 0.00 0.00 56 1012.7
20260905211543 91 78 2.0 8.0 0.00 0.00 0.00 55 1012.7
20260905211023 91 56 3.0 8.0 0.00 0.00 0.00 56 1012.7
20260905210523 91 360 1.0 8.0 0.00 0.00 0.00 58 1012.6
20260905210050 90 70 2.0 9.0 0.00 0.00 0.00 57 1012.7
20260905205524 91 20 2.0 9.0 0.00 0.00 0.00 57 1012.7
20260905205024 91 79 4.0 9.0 0.00 0.00 0.00 56 1012.7
20260905204548 92 21 2.0 8.0 0.00 0.00 0.00 56 1012.8
20260905204025 92 42 3.0 13.0 0.00 0.00 0.00 55 1012.7
20260905203524 93 2 4.0 16.0 0.00 0.00 0.00 52 1012.8
20260905203053 95 33 5.0 16.0 0.00 0.00 0.00 51 1012.8
20260905202525 97 8 5.0 14.0 0.00 0.00 0.00 49 1012.8
20260905202024 99 288 5.0 14.0 0.00 0.00 0.00 46 1012.8
20260905201551 99 354 2.0 5.0 0.00 0.00 0.00 47 1012.4
20260905201024 99 355 2.0 6.0 0.00 0.00 0.00 45 1012.4
20260905200525 98 179 1.0 6.0 0.00 0.00 0.00 47 1012.4
20260905200051 97 325 0.0 2.0 0.00 0.00 0.00 45 1012.4
20260905195526 96 11 1.0 2.0 0.00 0.00 0.00 46 1012.5
20260905195028 97 0 0.0 2.0 0.00 0.00 0.00 47 1012.8
20260905194553 97 27 0.0 4.0 0.00 0.00 0.00 46 1012.8
20260905194023 97 49 1.0 9.0 0.00 0.00 0.00 45 1012.8
20260905193526 97 352 3.0 9.0 0.00 0.00 0.00 46 1012.8
20260905193048 97 360 2.0 9.0 0.00 0.00 0.00 45 1012.8
20260905192526 97 356 2.0 8.0 0.00 0.00 0.00 47 1012.8
20260905192026 95 323 2.0 8.0 0.00 0.00 0.00 50 1012.8
20260905191551 95 331 4.0 8.0 0.00 0.00 0.00 50 1012.9
20260905191024 95 305 2.0 8.0 0.00 0.00 0.00 50 1013.0
20260905190529 95 3 4.0 8.0 0.00 0.00 0.00 49 1013.1
20260905190058 96 10 4.0 10.0 0.00 0.00 0.00 48 1013.1
20260905185524 97 11 3.0 10.0 0.00 0.00 0.00 47 1013.2
20260905185023 98 23 2.0 6.0 0.00 0.00 0.00 46 1013.1
20260905184608 99 359 2.0 9.0 0.00 0.00 0.00 45 1013.0
20260905184024 100 353 4.0 9.0 0.00 0.00 0.00 45 1013.0
20260905183525 101 37 2.0 6.0 0.00 0.00 0.00 42 1013.1
20260905183049 100 15 1.0 5.0 0.00 0.00 0.00 45 1013.0
20260905182524 99 89 1.0 3.0 0.00 0.00 0.00 50 1013.1
20260905182025 99 99 0.0 4.0 0.00 0.00 0.00 45 1013.0
20260905181547 97 359 1.0 5.0 0.00 0.00 0.00 46 1013.4
20260905181025 98 29 2.0 7.0 0.00 0.00 0.00 46 1013.5
20260905180525 98 2 2.0 7.0 0.00 0.00 0.00 47 1013.5
20260905180046 99 15 3.0 7.0 0.00 0.00 0.00 47 1013.4
20260905175524 98 353 2.0 6.0 0.00 0.00 0.00 47 1013.4
20260905175023 98 261 1.0 5.0 0.00 0.00 0.00 46 1013.4
20260905174556 98 82 2.0 5.0 0.00 0.00 0.00 46 1013.5
20260905174024 99 8 2.0 7.0 0.00 0.00 0.00 44 1013.5
20260905173525 98 33 1.0 7.0 0.00 0.00 0.00 47 1013.5
20260905173048 97 329 1.0 4.0 0.00 0.00 0.00 48 1013.6
20260905172525 97 4 2.0 4.0 0.00 0.00 0.00 50 1013.6
20260905172029 97 42 1.0 4.0 0.00 0.00 0.00 50 1013.5
20260905171547 97 239 0.0 6.0 0.00 0.00 0.00 52 1013.5
20260905171025 96 0 1.0 6.0 0.00 0.00 0.00 53 1013.5
20260905170525 96 71 3.0 6.0 0.00 0.00 0.00 53 1013.6
20260905170044 96 94 1.0 6.0 0.00 0.00 0.00 54 1013.7
20260905165523 96 35 1.0 5.0 0.00 0.00 0.00 54 1013.8
20260905165023 96 354 1.0 5.0 0.00 0.00 0.00 53 1014.0
20260905164549 95 153 0.0 3.0 0.00 0.00 0.00 57 1014.0
20260905164025 95 71 1.0 3.0 0.00 0.00 0.00 56 1014.1
20260905163525 95 94 0.0 5.0 0.00 0.00 0.00 58 1014.1
20260905163049 94 79 0.0 5.0 0.00 0.00 0.00 56 1014.2
20260905162525 94 18 2.0 5.0 0.00 0.00 0.00 57 1014.3
20260905162026 93 353 1.0 4.0 0.00 0.00 0.00 58 1014.4
20260905161549 93 283 2.0 4.0 0.00 0.00 0.00 59 1014.4
20260905161025 93 54 1.0 5.0 0.00 0.00 0.00 60 1014.5
20260905160529 93 97 2.0 5.0 0.00 0.00 0.00 61 1014.5
20260905160043 93 4 1.0 3.0 0.00 0.00 0.00 62 1014.6
20260905155524 92 127 1.0 3.0 0.00 0.00 0.00 61 1014.6
20260905155023 92 75 0.0 5.0 0.00 0.00 0.00 61 1014.6
20260905154553 92 143 0.0 5.0 0.00 0.00 0.00 62 1014.7
20260905154025 91 27 1.0 5.0 0.00 0.00 0.00 63 1014.8
20260905153525 91 116 0.0 4.0 0.00 0.00 0.00 65 1014.8
20260905153057 90 85 2.0 5.0 0.00 0.00 0.00 66 1014.7
20260905152525 91 175 3.0 5.0 0.00 0.00 0.00 66 1014.9
20260905152025 89 323 1.0 4.0 0.00 0.00 0.00 67 1014.8
20260905151550 89 85 1.0 4.0 0.00 0.00 0.00 70 1014.7
20260905151032 89 354 0.0 4.0 0.00 0.00 0.00 68 1015.0
20260905150528 89 135 1.0 5.0 0.00 0.00 0.00 71 1014.9
20260905150049 89 96 2.0 5.0 0.00 0.00 0.00 72 1014.8
20260905145526 88 150 1.0 2.0 0.00 0.00 0.00 72 1015.0
20260905145025 87 76 0.0 2.0 0.00 0.00 0.00 73 1015.0
20260905144545 87 350 1.0 2.0 0.00 0.00 0.00 74 1015.1
20260905144025 86 42 0.0 3.0 0.00 0.00 0.00 75 1015.1
20260905143524 86 10 0.0 3.0 0.00 0.00 0.00 76 1015.1
20260905143049 85 5 1.0 2.0 0.00 0.00 0.00 76 1015.1
20260905142524 84 0 0.0 2.0 0.00 0.00 0.00 79 1015.2
20260905142025 84 2 0.0 2.0 0.00 0.00 0.00 80 1015.2
20260905141548 83 71 0.0 2.0 0.00 0.00 0.00 81 1015.3
20260905141024 82 0 0.0 2.0 0.00 0.00 0.00 82 1015.4
20260905140524 82 187 0.0 2.0 0.00 0.00 0.00 84 1015.4
20260905140046 81 93 0.0 2.0 0.00 0.00 0.00 84 1015.4
20260905135526 81 146 1.0 2.0 0.00 0.00 0.00 84 1015.4
20260905135024 80 0 0.0 2.0 0.00 0.00 0.00 86 1015.4
20260905134542 80 344 1.0 2.0 0.00 0.00 0.00 87 1015.5
20260905134024 79 50 0.0 2.0 0.00 0.00 0.00 87 1015.5
20260905133523 79 0 0.0 2.0 0.00 0.00 0.00 88 1015.5
20260905133049 78 109 1.0 2.0 0.00 0.00 0.00 89 1015.5
20260905132524 78 98 0.0 2.0 0.00 0.00 0.00 90 1015.6
20260905132027 77 0 0.0 2.0 0.00 0.00 0.00 90 1015.7
20260905131559 77 0 0.0 2.0 0.00 0.00 0.00 91 1015.7
20260905131025 77 0 0.0 2.0 0.00 0.00 0.00 91 1015.7
20260905130525 76 103 0.0 2.0 0.00 0.00 0.00 91 1015.7
20260905130046 76 147 0.0 2.0 0.00 0.00 0.00 91 1015.7
20260905125525 76 98 0.0 2.0 0.00 0.00 0.00 91 1015.7
20260905125025 76 135 0.0 2.0 0.00 0.00 0.00 91 1015.7
20260905124549 75 135 0.0 2.0 0.00 0.00 0.00 92 1015.7
20260905124024 75 0 0.0 2.0 0.00 0.00 0.00 92 1015.7
20260905123524 75 0 0.0 2.0 0.00 0.00 0.00 91 1015.7
20260905123059 75 161 1.0 2.0 0.00 0.00 0.00 92 1015.6
20260905122526 75 0 0.0 2.0 0.00 0.00 0.00 92 1015.6
20260905122025 74 131 0.0 2.0 0.00 0.00 0.00 91 1015.6
20260905121551 74 0 0.0 2.0 0.00 0.00 0.00 91 1015.6
20260905121025 74 157 0.0 2.0 0.00 0.00 0.00 91 1015.4
20260905120529 74 131 0.0 2.0 0.00 0.00 0.00 91 1015.5
20260905120050 74 142 0.0 2.0 0.00 0.00 0.00 91 1015.5
20260905115526 74 108 0.0 2.0 0.00 0.00 0.00 91 1015.3
20260905115025 74 108 1.0 2.0 0.00 0.00 0.00 91 1015.3
20260905114546 74 102 1.0 2.0 0.00 0.00 0.00 91 1015.2
20260905114026 74 128 0.0 2.0 0.00 0.00 0.00 91 1015.1
20260905113526 74 153 0.0 2.0 0.00 0.00 0.00 91 1014.9
20260905113055 74 104 1.0 2.0 0.00 0.00 0.00 91 1015.0
20260905112527 74 125 1.0 1.0 0.00 0.00 0.00 91 1014.8
20260905112025 74 134 0.0 2.0 0.00 0.00 0.00 91 1014.6
20260905111556 74 0 0.0 2.0 0.00 0.00 0.00 91 1014.6
20260905111028 74 0 0.0 2.0 0.00 0.00 0.00 91 1014.6
20260905110524 74 134 0.0 1.0 0.00 0.00 0.00 91 1014.5
20260905110046 74 0 0.0 2.0 0.00 0.00 0.00 91 1014.5
20260905105525 74 0 0.0 2.0 0.00 0.00 0.00 91 1014.4
20260905105026 74 134 0.0 2.0 0.00 0.00 0.00 91 1014.4
20260905104551 74 134 1.0 1.0 0.00 0.00 0.00 91 1014.3
20260905104026 74 0 0.0 0.0 0.00 0.00 0.00 90 1014.3
20260905103525 74 0 0.0 0.0 0.00 0.00 0.00 90 1014.3
20260905103047 74 0 0.0 0.0 0.00 0.00 0.00 90 1014.3
20260905102525 74 0 0.0 0.0 0.00 0.00 0.00 90 1014.2
20260905102025 74 0 0.0 0.0 0.00 0.00 0.00 90 1014.2
20260905101611 74 0 0.0 1.0 0.00 0.00 0.00 90 1014.4
20260905101023 74 0 0.0 1.0 0.00 0.00 0.00 90 1014.3
20260905100524 74 0 1.0 1.0 0.00 0.00 0.00 90 1014.2
20260905100050 74 0 0.0 2.0 0.00 0.00 0.00 90 1014.2
20260905095524 74 0 0.0 2.0 0.00 0.00 0.00 90 1014.3
20260905095024 75 0 0.0 0.0 0.00 0.00 0.00 90 1014.3
20260905094547 75 0 0.0 0.0 0.00 0.00 0.00 90 1014.1
20260905094026 75 0 0.0 1.0 0.00 0.00 0.00 90 1014.0
20260905093525 75 0 0.0 1.0 0.00 0.00 0.00 90 1014.0
20260905093047 75 134 0.0 2.0 0.00 0.00 0.00 90 1014.0
20260905092526 75 134 0.0 2.0 0.00 0.00 0.00 90 1014.0
20260905092026 75 0 0.0 0.0 0.00 0.00 0.00 90 1014.0
20260905091546 75 0 0.0 0.0 0.00 0.00 0.00 90 1014.1
20260905091024 75 0 0.0 0.0 0.00 0.00 0.00 90 1014.1
20260905090524 75 0 0.0 0.0 0.00 0.00 0.00 89 1014.1
20260905090049 75 0 0.0 0.0 0.00 0.00 0.00 89 1014.1
20260905085525 75 0 0.0 0.0 0.00 0.00 0.00 89 1014.1
20260905085025 75 0 0.0 1.0 0.00 0.00 0.00 89 1014.0
20260905084603 75 0 0.0 1.0 0.00 0.00 0.00 89 1014.0
20260905084025 75 0 0.0 0.0 0.00 0.00 0.00 89 1014.0
20260905083527 75 0 0.0 2.0 0.00 0.00 0.00 89 1014.0
20260905083048 75 0 0.0 2.0 0.00 0.00 0.00 89 1014.0
20260905082525 75 0 0.0 2.0 0.00 0.00 0.00 89 1014.0
20260905082027 76 0 0.0 0.0 0.00 0.00 0.00 89 1014.0
20260905081544 76 0 0.0 1.0 0.00 0.00 0.00 89 1014.0
20260905081025 76 0 0.0 1.0 0.00 0.00 0.00 88 1014.0
20260905080523 76 145 0.0 1.0 0.00 0.00 0.00 88 1013.9
20260905080047 76 0 0.0 0.0 0.00 0.00 0.00 88 1013.9
20260905075528 76 0 0.0 1.0 0.00 0.00 0.00 88 1013.8
20260905075024 76 0 0.0 1.0 0.00 0.00 0.00 88 1013.8
20260905074549 76 0 0.0 2.0 0.00 0.00 0.00 88 1013.8
20260905074024 76 113 0.0 2.0 0.00 0.00 0.00 88 1013.8
20260905073528 77 0 0.0 2.0 0.00 0.00 0.00 87 1013.9
20260905073049 77 0 0.0 2.0 0.00 0.00 0.00 87 1013.8
20260905072526 77 113 0.0 2.0 0.00 0.00 0.00 87 1013.8
20260905072025 77 113 1.0 2.0 0.00 0.00 0.00 87 1013.9
20260905071559 77 0 0.0 2.0 0.00 0.00 0.00 87 1013.9
20260905071026 77 0 0.0 2.0 0.00 0.00 0.00 87 1013.8
20260905070524 77 113 0.0 1.0 0.00 0.00 0.00 87 1013.9
20260905070058 77 113 0.0 2.0 0.00 0.00 0.00 87 1013.8
20260905065527 78 0 0.0 2.0 0.00 0.00 0.00 86 1014.0
20260905065025 78 0 0.0 2.0 0.00 0.00 0.00 86 1013.9
20260905064548 78 169 0.0 2.0 0.00 0.00 0.00 86 1013.9
20260905064024 78 169 0.0 2.0 0.00 0.00 0.00 86 1013.9
20260905063529 78 0 0.0 0.0 0.00 0.00 0.00 86 1014.0
20260905063051 78 0 0.0 0.0 0.00 0.00 0.00 86 1014.0
20260905062529 78 0 0.0 2.0 0.00 0.00 0.00 86 1013.9
20260905062026 78 0 0.0 2.0 0.00 0.00 0.00 86 1014.0
20260905061547 78 169 0.0 2.0 0.00 0.00 0.00 86 1014.0
20260905061024 78 169 1.0 2.0 0.00 0.00 0.00 86 1014.0
20260905060524 78 154 1.0 2.0 0.00 0.00 0.00 86 1014.1
20260905060049 78 115 1.0 2.0 0.00 0.00 0.00 85 1014.2
20260905055528 79 0 0.0 2.0 0.00 0.00 0.00 86 1014.2
20260905055024 79 101 1.0 2.0 0.00 0.00 0.00 86 1014.3
20260905054603 79 106 1.0 2.0 0.00 0.00 0.00 85 1014.2
20260905054025 79 113 1.0 2.0 0.00 0.00 0.00 85 1014.3
20260905053524 79 117 1.0 2.0 0.00 0.00 0.00 85 1014.3
20260905053110 79 117 0.0 2.0 0.00 0.00 0.00 85 1014.3
20260905052529 79 117 0.0 2.0 0.00 0.00 0.00 85 1014.1
20260905052025 79 162 0.0 2.0 0.00 0.00 0.00 85 1014.2
20260905051544 79 0 0.0 2.0 0.00 0.00 0.00 86 1014.2
20260905051024 79 133 0.0 2.0 0.00 0.00 0.00 86 1014.3
20260905050526 79 129 1.0 2.0 0.00 0.00 0.00 86 1014.4
20260905050051 79 143 1.0 2.0 0.00 0.00 0.00 86 1014.4
20260905045524 79 139 0.0 2.0 0.00 0.00 0.00 86 1014.3
20260905045025 79 0 0.0 2.0 0.00 0.00 0.00 86 1014.5
20260905044549 79 130 0.0 2.0 0.00 0.00 0.00 86 1014.5
20260905044025 79 0 0.0 2.0 0.00 0.00 0.00 86 1014.6
20260905043525 79 142 0.0 2.0 0.00 0.00 0.00 86 1014.5
20260905043047 79 131 1.0 2.0 0.00 0.00 0.00 87 1014.5
20260905042527 79 100 1.0 2.0 0.00 0.00 0.00 87 1014.4
20260905042025 79 0 0.0 2.0 0.00 0.00 0.00 87 1014.5
20260905041546 79 141 0.0 2.0 0.00 0.00 0.00 87 1014.5
20260905041027 79 162 0.0 2.0 0.00 0.00 0.00 86 1014.6
20260905040525 79 0 0.0 2.0 0.00 0.00 0.00 86 1014.6
20260905040051 79 133 1.0 2.0 0.00 0.00 0.00 86 1014.7
20260905035525 79 0 0.0 2.0 0.00 0.00 0.00 86 1014.7
20260905035024 79 133 1.0 2.0 0.00 0.00 0.00 86 1014.8
20260905034551 79 133 0.0 2.0 0.00 0.00 0.00 86 1014.9
20260905034024 79 0 0.0 2.0 0.00 0.00 0.00 86 1015.0
20260905033525 79 133 0.0 1.0 0.00 0.00 0.00 86 1014.9
20260905033058 80 0 0.0 2.0 0.00 0.00 0.00 85 1014.9
20260905032526 80 133 0.0 2.0 0.00 0.00 0.00 85 1015.0
20260905032025 80 133 0.0 2.0 0.00 0.00 0.00 85 1015.1
20260905031559 80 0 0.0 2.0 0.00 0.00 0.00 85 1015.1
20260905031023 80 133 1.0 2.0 0.00 0.00 0.00 85 1015.2
20260905030523 80 133 1.0 2.0 0.00 0.00 0.00 85 1015.1
20260905030058 80 0 0.0 1.0 0.00 0.00 0.00 84 1015.2
20260905025524 80 0 0.0 1.0 0.00 0.00 0.00 84 1015.3
20260905025025 81 0 0.0 2.0 0.00 0.00 0.00 83 1015.2
20260905024630 81 0 0.0 2.0 0.00 0.00 0.00 83 1015.3
20260905024025 81 0 0.0 1.0 0.00 0.00 0.00 82 1015.3
20260905023528 81 133 1.0 2.0 0.00 0.00 0.00 83 1015.3
20260905023058 81 154 0.0 2.0 0.00 0.00 0.00 82 1015.2